Gallatin Field Bozeman US
ICAO: KBZN
IATA: BZN
Category: Medium
Scheduled Services: Yes

Elevation: 4473 ft
TransAlt. 18000 ft.

Airport Communications:
ATIS:135.425
SALT LAKE CITY CNTR:132.4
CTAF:118.2
GND:121.8
GREAT FALLS RDO:122.5
BOZEMAN TWR:118.2
UNICOM:122.95

KBZN Zoom In..

Runways:

(A) RW 03 length 2650 ft width 75 ft
---- / hdg 33

(B) RW 11 length 3197 ft width 80 ft
---- / hdg 122

(C) RW 12 length 8994 ft width 150 ft
ILS 109.30 / hdg 123

(D) RW 21 length 2650 ft width 75 ft
---- / hdg 213

(E) RW 29 length 3197 ft width 80 ft
---- / hdg 302

(F) RW 30 length 8994 ft width 150 ft
---- / hdg 303

Location; KBZN
Day. 05 / Time. 13.56 Zulu
* Altimeter: 29.96
* Temperature: 13° c. 55.4°f.
* Wind from: 000° Speed 00 kn.
Dewpoint: 05° c.
Visibility: 10 Statute Miles.
Clouds: Broken 1000 ft.

KBZN 051356Z 00000KT 10SM BKN100 13/05 A2996 RMK AO2 SLP118 T01280050


Wind - Calm.

 
 
jpsmedia worldairports.se 2020   terms of use